"period end","wind dir","wind speed [m/s]","friction velocity [m/s]","avg(u) [m/s]","avg(v) [m/s]","avg(w) [m/s]","avg(Ts) [C]","<u'u'>","<v'v'>","<w'w'>","<Ts'Ts'>","w'Ts'","# data rec","# filt. data rec","buoyancy flux: B [W m-2]","momentum flux: FM [N m-2]","inverse Obukhov length: L-1 [m-1]","ustar2 [?]","phi","psi"
2013-07-05 07:40,13,6.089,0.407,5.888,-1.308,-0.042,6.944,6.286e-01,4.270e-01,2.661e-01,8.805e-02,6.554e-02,6000,0,8.194e+01,-2.065e-01,-1.358e-02,0.392,-6.936e-03,
2013-07-05 07:50,14,6.275,0.377,6.046,-1.514,-0.183,6.934,4.472e-01,3.015e-01,2.226e-01,6.650e-02,4.432e-02,6000,0,5.542e+01,-1.768e-01,-1.159e-02,0.373,-2.938e-02,
2013-07-05 08:00,14,5.758,0.348,5.546,-1.340,-0.096,6.941,4.528e-01,3.723e-01,2.107e-01,5.651e-02,5.093e-02,6001,0,6.368e+01,-1.506e-01,-1.695e-02,0.341,-1.688e-02,
2013-07-05 08:10,15,5.463,0.483,5.211,-1.372,0.079,7.127,5.179e-01,5.289e-01,2.953e-01,9.422e-02,8.918e-02,6000,0,1.114e+02,-2.903e-01,-1.107e-02,0.463,1.474e-02,
2013-07-05 08:20,18,6.248,0.368,5.896,-1.911,-0.165,7.032,3.862e-01,3.981e-01,2.419e-01,6.740e-02,6.201e-02,6000,0,7.751e+01,-1.681e-01,-1.747e-02,0.354,-2.665e-02,
2013-07-05 08:30,18,6.068,0.351,5.735,-1.847,-0.162,6.939,4.362e-01,2.992e-01,2.029e-01,4.387e-02,4.533e-02,6000,0,5.667e+01,-1.530e-01,-1.472e-02,0.342,-2.685e-02,
2013-07-05 09:00,15,5.298,0.353,5.075,-1.368,-0.097,6.790,3.410e-01,2.445e-01,1.953e-01,7.347e-02,5.369e-02,6000,0,6.717e+01,-1.551e-01,-1.711e-02,0.350,-1.845e-02,
2013-07-05 09:10,19,5.574,0.320,5.234,-1.802,-0.169,6.606,3.046e-01,2.591e-01,1.740e-01,3.380e-02,2.923e-02,6000,0,3.658e+01,-1.273e-01,-1.255e-02,0.304,-3.044e-02,
2013-07-05 09:20,25,5.136,0.377,4.574,-2.164,-0.061,6.893,4.300e-01,3.881e-01,3.055e-01,1.225e-01,9.560e-02,6001,0,1.195e+02,-1.769e-01,-2.499e-02,0.365,-1.214e-02,
2013-07-05 09:30,34,5.241,0.368,4.315,-2.862,-0.186,6.960,2.981e-01,3.489e-01,2.857e-01,9.429e-02,7.018e-02,6000,0,8.774e+01,-1.689e-01,-1.965e-02,0.349,-3.586e-02,
2013-07-05 09:40,39,5.688,0.414,4.391,-3.521,-0.223,6.622,4.543e-01,3.989e-01,2.875e-01,3.700e-02,4.849e-02,6000,0,6.069e+01,-2.137e-01,-9.571e-03,0.412,-3.967e-02,
2013-07-05 09:50,40,4.848,0.414,3.670,-3.073,-0.201,5.924,4.172e-01,3.772e-01,2.772e-01,7.102e-02,9.855e-03,6000,0,1.237e+01,-2.144e-01,-1.948e-03,0.406,-4.193e-02,
2013-07-05 10:00,37,4.321,0.391,3.394,-2.542,-0.120,6.162,2.916e-01,4.877e-01,2.838e-01,4.564e-02,4.959e-02,6000,0,6.218e+01,-1.912e-01,-1.162e-02,0.378,-2.837e-02,
2013-07-05 10:10,20,3.932,0.243,3.660,-1.328,-0.121,5.759,2.133e-01,1.786e-01,1.146e-01,3.015e-02,2.345e-02,6000,0,2.944e+01,-7.347e-02,-2.313e-02,0.217,-3.096e-02,
2013-07-05 10:20,17,3.584,0.205,3.389,-1.027,-0.179,5.990,1.650e-01,2.175e-01,9.817e-02,3.585e-02,1.507e-02,6001,0,1.891e+01,-5.234e-02,-2.468e-02,0.187,-5.046e-02,
2013-07-05 10:30,29,3.199,0.319,2.731,-1.537,-0.098,6.104,5.133e-01,1.999e-01,1.473e-01,2.802e-02,1.032e-02,6000,0,1.294e+01,-1.269e-01,-4.469e-03,0.319,-3.119e-02,
2013-07-05 10:40,36,2.591,0.258,2.026,-1.467,0.085,6.108,2.928e-01,2.199e-01,1.740e-01,2.530e-02,2.738e-02,6000,0,3.434e+01,-8.335e-02,-2.229e-02,0.258,3.393e-02,
2013-07-05 10:50,58,2.457,0.296,1.189,-1.879,0.162,5.477,6.935e-01,5.564e-01,1.322e-01,5.931e-01,7.113e-02,6000,0,8.940e+01,-1.097e-01,-3.856e-02,0.183,7.278e-02,
2013-07-05 11:00,78,2.819,0.136,0.595,-2.692,-0.160,4.412,2.765e-01,7.120e-02,6.201e-02,2.729e-01,-1.792e-02,6000,0,-2.261e+01,-2.322e-02,1.007e-01,0.029,-5.803e-02,
2013-07-05 11:10,48,2.736,0.322,1.755,-1.957,-0.114,5.495,4.783e-01,1.873e-01,2.274e-01,6.880e-02,2.461e-02,6000,0,3.093e+01,-1.300e-01,-1.034e-02,0.320,-4.331e-02,
2013-07-05 11:20,47,2.823,0.252,1.873,-1.996,-0.037,5.484,3.490e-01,1.834e-01,1.841e-01,6.074e-02,1.697e-02,6000,0,2.133e+01,-7.973e-02,-1.485e-02,0.247,-1.341e-02,
2013-07-05 11:30,39,3.774,0.328,2.898,-2.317,-0.164,5.871,2.735e-01,3.578e-01,2.032e-01,4.176e-02,3.868e-02,6001,0,4.855e+01,-1.346e-01,-1.538e-02,0.311,-4.407e-02,
2013-07-05 11:40,36,3.639,0.388,2.891,-2.087,-0.099,5.940,2.491e-01,3.407e-01,2.668e-01,5.799e-02,5.934e-02,6000,0,7.446e+01,-1.882e-01,-1.426e-02,0.365,-2.770e-02,
2013-07-05 11:50,24,3.752,0.362,3.340,-1.497,-0.057,6.108,3.419e-01,4.748e-01,2.029e-01,6.059e-02,5.800e-02,6000,0,7.273e+01,-1.632e-01,-1.722e-02,0.293,-1.545e-02,
2013-07-05 12:00,17,4.043,0.354,3.813,-1.152,-0.126,6.197,2.566e-01,3.015e-01,1.943e-01,5.193e-02,4.761e-02,6000,0,5.969e+01,-1.562e-01,-1.509e-02,0.301,-3.164e-02,
2013-07-05 12:10,23,3.867,0.334,3.506,-1.475,-0.116,6.190,2.384e-01,2.717e-01,2.155e-01,7.897e-02,7.460e-02,6000,0,9.352e+01,-1.390e-01,-2.818e-02,0.285,-3.049e-02,
2013-07-05 12:20,20,4.132,0.253,3.832,-1.427,-0.177,5.598,1.711e-01,2.173e-01,1.341e-01,4.936e-02,3.209e-02,6000,0,4.032e+01,-8.023e-02,-2.779e-02,0.225,-4.318e-02,
2013-07-05 12:30,14,3.062,0.191,2.936,-0.736,-0.142,5.556,1.370e-01,1.248e-01,8.756e-02,2.409e-02,1.196e-02,6001,0,1.503e+01,-4.579e-02,-2.403e-02,0.163,-4.701e-02,
2013-07-05 12:40,5,3.372,0.234,3.315,-0.317,-0.078,5.949,2.821e-01,1.443e-01,1.179e-01,2.541e-02,2.763e-02,6000,0,3.466e+01,-6.842e-02,-3.027e-02,0.204,-2.337e-02,
2013-07-05 12:50,3,3.709,0.238,3.666,-0.206,-0.033,6.167,1.466e-01,1.563e-01,1.117e-01,2.524e-02,2.252e-02,6000,0,2.823e+01,-7.092e-02,-2.334e-02,0.229,-9.087e-03,
2013-07-05 13:00,4,3.736,0.234,3.688,-0.272,-0.125,6.328,1.805e-01,1.369e-01,1.237e-01,2.974e-02,3.005e-02,6000,0,3.765e+01,-6.845e-02,-3.280e-02,0.213,-3.371e-02,
2013-07-05 13:10,5,4.451,0.307,4.391,-0.413,-0.077,6.310,3.511e-01,2.060e-01,1.555e-01,3.392e-02,3.026e-02,6000,0,3.792e+01,-1.172e-01,-1.474e-02,0.272,-1.755e-02,
2013-07-05 13:20,10,4.041,0.237,3.946,-0.680,-0.057,6.204,1.885e-01,1.637e-01,1.242e-01,1.943e-02,2.027e-02,6000,0,2.542e+01,-7.026e-02,-2.130e-02,0.192,-1.418e-02,
2013-07-05 13:30,10,3.633,0.303,3.529,-0.649,0.042,6.118,2.596e-01,1.507e-01,1.627e-01,4.526e-02,5.605e-02,6000,0,7.028e+01,-1.145e-01,-2.833e-02,0.301,1.182e-02,
2013-07-05 13:40,8,3.462,0.274,3.394,-0.455,-0.096,6.036,2.414e-01,1.373e-01,1.153e-01,1.469e-02,2.165e-02,6001,0,2.716e+01,-9.355e-02,-1.483e-02,0.262,-2.800e-02,
2013-07-05 13:50,8,3.594,0.246,3.525,-0.469,-0.091,6.021,2.417e-01,1.421e-01,1.079e-01,5.355e-03,9.019e-03,6000,0,1.131e+01,-7.547e-02,-8.527e-03,0.239,-2.553e-02,
2013-07-05 14:00,18,2.854,0.248,2.666,-0.871,-0.115,6.025,2.331e-01,1.491e-01,1.054e-01,4.774e-03,7.151e-03,6000,0,8.970e+00,-7.704e-02,-6.554e-03,0.248,-4.108e-02,
2013-07-05 14:10,31,1.816,0.265,1.495,-0.891,-0.038,6.004,4.430e-01,1.204e-01,1.038e-01,3.374e-03,6.965e-03,6000,0,8.737e+00,-8.741e-02,-5.283e-03,0.263,-2.172e-02,
2013-07-05 14:20,25,1.404,0.242,1.211,-0.552,0.031,5.853,1.652e-01,1.072e-01,8.756e-02,2.249e-02,9.432e-03,6000,0,1.184e+01,-7.307e-02,-9.374e-03,0.241,2.298e-02,
2013-07-05 14:30,63,0.773,0.190,0.258,-0.497,-0.007,5.478,2.777e-01,9.564e-02,5.149e-02,2.972e-02,-6.574e-03,6000,0,-8.263e+00,-4.532e-02,1.342e-02,0.125,-1.293e-02,
2013-07-05 14:40,11,1.524,0.159,1.446,-0.278,-0.016,5.573,3.349e-01,9.147e-02,5.367e-02,4.772e-02,-1.807e-03,6000,0,-2.271e+00,-3.178e-02,6.278e-03,0.159,-1.062e-02,
2013-07-05 14:50,4,2.817,0.149,2.790,-0.198,-0.057,5.740,1.251e-01,6.541e-02,3.342e-02,2.068e-03,-9.363e-04,6001,0,-1.176e+00,-2.781e-02,3.967e-03,0.147,-2.036e-02,
2013-07-05 15:00,4,2.836,0.104,2.814,-0.217,-0.077,5.729,7.629e-02,4.471e-02,2.256e-02,3.929e-03,-7.767e-04,6000,0,-9.753e-01,-1.364e-02,9.581e-03,0.076,-2.713e-02,
2013-07-05 15:10,10,2.414,0.058,2.371,-0.399,-0.106,5.611,3.670e-02,2.460e-02,1.136e-02,3.071e-03,-2.301e-05,6000,0,-2.890e-02,-4.225e-03,1.648e-03,0.057,-4.421e-02,
2013-07-05 15:20,4,2.271,0.065,2.252,-0.170,-0.103,5.553,6.509e-02,2.675e-02,1.475e-02,3.254e-03,-8.194e-04,6000,0,-1.030e+00,-5.327e-03,4.149e-02,0.061,-4.539e-02,
2013-07-05 15:30,4,2.429,0.075,2.412,-0.189,-0.096,5.582,2.831e-02,2.552e-02,1.327e-02,2.549e-03,-1.111e-03,6000,0,-1.396e+00,-7.046e-03,3.698e-02,0.071,-3.952e-02,
2013-07-05 15:40,354,2.512,0.062,2.490,0.248,-0.054,5.664,3.184e-02,3.658e-02,8.054e-03,5.499e-03,-4.353e-04,6000,0,-5.467e-01,-4.737e-03,2.625e-02,0.049,-2.174e-02,
2013-07-05 15:50,357,2.906,0.092,2.892,0.167,-0.050,5.753,5.424e-02,2.973e-02,1.599e-02,2.832e-03,-1.405e-03,6001,0,-1.764e+00,-1.060e-02,2.531e-02,0.090,-1.738e-02,
2013-07-05 16:00,0,2.687,0.148,2.593,0.018,-0.047,5.722,8.555e-02,4.857e-01,1.841e-02,6.236e-03,8.942e-04,6000,0,1.123e+00,-2.729e-02,-3.899e-03,0.097,-1.803e-02,
2013-07-05 16:10,7,2.800,0.112,2.758,-0.359,-0.100,5.468,6.107e-02,7.749e-02,1.647e-02,7.384e-03,-2.008e-04,6000,0,-2.524e-01,-1.557e-02,2.036e-03,0.098,-3.607e-02,
2013-07-05 16:20,4,3.003,0.083,2.981,-0.227,-0.100,5.337,3.414e-02,5.826e-02,9.914e-03,5.453e-03,-7.911e-04,6000,0,-9.948e-01,-8.595e-03,1.958e-02,0.055,-3.350e-02,
2013-07-05 16:30,348,3.540,0.130,3.441,0.750,-0.044,5.656,1.737e-01,9.644e-02,3.741e-02,1.501e-02,-1.240e-03,6000,0,-1.557e+00,-2.108e-02,7.967e-03,0.107,-1.239e-02,
2013-07-05 16:40,348,3.612,0.126,3.521,0.739,-0.041,5.701,9.667e-02,6.932e-02,3.181e-02,2.302e-03,-1.626e-03,6000,0,-2.041e+00,-1.994e-02,1.135e-02,0.116,-1.135e-02,
2013-07-05 16:50,342,3.850,0.132,3.643,1.196,-0.007,5.752,1.854e-01,8.063e-02,3.514e-02,2.094e-03,-1.505e-03,6000,0,-1.890e+00,-2.183e-02,9.170e-03,0.124,-1.856e-03,
2013-07-05 17:00,340,4.017,0.174,3.749,1.378,0.032,5.684,1.750e-01,1.274e-01,4.240e-02,2.831e-03,-2.627e-03,6001,0,-3.299e+00,-3.784e-02,7.016e-03,0.147,7.956e-03,
2013-07-05 17:10,336,3.874,0.184,3.529,1.548,0.067,5.602,1.737e-01,9.731e-02,4.247e-02,3.432e-03,-2.910e-03,6000,0,-3.656e+00,-4.247e-02,6.542e-03,0.176,1.742e-02,
2013-07-05 17:20,323,4.052,0.189,3.193,2.420,0.091,5.521,3.092e-01,1.708e-01,4.513e-02,1.747e-02,-3.510e-03,6000,0,-4.411e+00,-4.484e-02,7.280e-03,0.176,2.267e-02,
2013-07-05 17:30,317,4.379,0.135,3.205,2.967,0.063,5.257,1.017e-01,6.286e-02,2.606e-02,2.910e-03,-1.426e-03,6000,0,-1.794e+00,-2.278e-02,8.187e-03,0.128,1.453e-02,
2013-07-05 17:40,324,4.702,0.132,3.794,2.757,0.071,5.193,1.038e-01,6.761e-02,3.425e-02,2.264e-03,-2.714e-03,6000,0,-3.414e+00,-2.172e-02,1.674e-02,0.125,1.508e-02,
2013-07-05 17:50,326,4.299,0.134,3.544,2.417,0.072,5.294,1.098e-01,6.509e-02,2.775e-02,3.666e-03,-2.352e-03,6000,0,-2.958e+00,-2.254e-02,1.371e-02,0.129,1.680e-02,
2013-07-05 18:00,329,3.640,0.110,3.116,1.847,0.081,5.309,1.627e-01,1.334e-01,3.092e-02,5.829e-03,-2.942e-03,6000,0,-3.700e+00,-1.514e-02,3.115e-02,0.082,2.243e-02,
2013-07-05 18:10,345,3.543,0.176,3.380,0.904,0.008,5.579,2.496e-01,1.984e-01,4.756e-02,2.168e-02,-4.413e-03,6001,0,-5.544e+00,-3.870e-02,1.140e-02,0.153,2.296e-03,
2013-07-05 18:20,347,3.482,0.197,3.369,0.774,0.012,5.647,2.200e-01,1.160e-01,4.825e-02,1.789e-03,-6.558e-05,6000,0,-8.238e-02,-4.863e-02,1.203e-04,0.186,3.556e-03,
2013-07-05 18:30,341,3.242,0.206,3.024,1.048,0.046,5.580,2.302e-01,1.718e-01,6.156e-02,9.022e-03,1.203e-03,6000,0,1.512e+00,-5.319e-02,-1.930e-03,0.183,1.439e-02,
2013-07-05 18:40,348,3.522,0.199,3.417,0.720,0.005,5.646,1.333e-01,1.270e-01,7.317e-02,4.502e-03,7.780e-03,6000,0,9.772e+00,-4.954e-02,-1.387e-02,0.195,1.297e-03,
2013-07-05 18:50,349,3.652,0.204,3.560,0.682,-0.036,5.591,1.959e-01,1.111e-01,6.472e-02,3.257e-03,4.724e-03,6000,0,5.935e+00,-5.200e-02,-7.839e-03,0.200,-9.889e-03,
2013-07-05 19:00,357,3.314,0.183,3.275,0.171,-0.007,5.566,1.245e-01,1.745e-01,5.323e-02,2.032e-03,1.924e-03,6000,0,2.418e+00,-4.187e-02,-4.420e-03,0.175,-2.235e-03,
2013-07-05 19:10,0,3.368,0.163,3.345,0.012,-0.061,5.564,1.316e-01,9.861e-02,5.363e-02,3.259e-03,3.956e-03,6001,0,4.970e+00,-3.315e-02,-1.290e-02,0.162,-1.828e-02,
2013-07-05 19:20,349,3.713,0.159,3.619,0.735,-0.073,5.612,9.152e-02,9.187e-02,5.923e-02,6.048e-03,7.845e-03,6000,0,9.855e+00,-3.153e-02,-2.757e-02,0.137,-1.971e-02,
2013-07-05 19:30,355,4.065,0.189,4.003,0.367,-0.063,5.716,1.967e-01,2.543e-01,9.922e-02,8.415e-03,1.049e-02,6000,0,1.318e+01,-4.441e-02,-2.204e-02,0.159,-1.567e-02,
2013-07-05 19:40,4,4.334,0.221,4.292,-0.301,-0.111,5.571,2.307e-01,1.694e-01,8.556e-02,8.268e-03,6.626e-03,6000,0,8.325e+00,-6.097e-02,-8.662e-03,0.216,-2.587e-02,
2013-07-05 19:50,4,4.092,0.229,4.052,-0.288,-0.047,5.442,2.447e-01,1.544e-01,8.431e-02,4.089e-03,5.406e-03,6000,0,6.796e+00,-6.571e-02,-6.323e-03,0.217,-1.152e-02,
2013-07-05 20:00,3,4.049,0.229,4.010,-0.238,-0.024,5.341,2.283e-01,1.480e-01,1.024e-01,3.130e-03,4.206e-03,6000,0,5.289e+00,-6.540e-02,-4.960e-03,0.204,-5.885e-03,
2013-07-05 20:10,8,3.755,0.194,3.691,-0.544,-0.079,5.210,1.612e-01,9.874e-02,7.556e-02,5.120e-03,2.204e-03,6000,0,2.773e+00,-4.698e-02,-4.274e-03,0.186,-2.129e-02,
2013-07-05 20:20,4,3.806,0.171,3.773,-0.262,-0.079,5.104,1.492e-01,1.121e-01,6.084e-02,2.453e-03,1.373e-03,6001,0,1.728e+00,-3.677e-02,-3.848e-03,0.157,-2.100e-02,
2013-07-05 20:30,1,4.135,0.215,4.112,-0.096,-0.078,5.017,2.076e-01,1.062e-01,6.938e-02,2.255e-03,1.563e-03,6000,0,1.967e+00,-5.805e-02,-2.210e-03,0.206,-1.899e-02,
2013-07-05 20:40,3,4.049,0.181,4.018,-0.189,-0.062,5.081,1.641e-01,1.370e-01,6.963e-02,2.227e-03,1.953e-03,6000,0,2.458e+00,-4.108e-02,-4.637e-03,0.173,-1.548e-02,
2013-07-05 20:50,5,4.082,0.220,4.043,-0.326,-0.090,5.033,1.768e-01,1.185e-01,8.298e-02,3.829e-03,4.251e-03,6000,0,5.351e+00,-6.051e-02,-5.648e-03,0.214,-2.228e-02,
2013-07-05 21:00,2,4.069,0.228,4.037,-0.135,-0.058,5.069,2.233e-01,1.402e-01,9.469e-02,3.722e-03,3.742e-03,6000,0,4.710e+00,-6.492e-02,-4.472e-03,0.223,-1.429e-02,
2013-07-05 21:10,358,4.407,0.267,4.374,0.139,-0.048,5.128,2.993e-01,1.559e-01,1.038e-01,2.715e-03,4.841e-03,6000,0,6.092e+00,-8.920e-02,-3.590e-03,0.257,-1.098e-02,
2013-07-05 21:20,357,4.822,0.214,4.790,0.253,-0.086,5.172,2.869e-01,1.423e-01,8.841e-02,4.177e-03,3.105e-03,6000,0,3.906e+00,-5.713e-02,-4.491e-03,0.210,-1.803e-02,
2013-07-05 21:30,356,4.667,0.256,4.622,0.311,-0.011,5.453,3.198e-01,2.118e-01,1.132e-01,1.738e-02,3.938e-03,6001,0,4.950e+00,-8.177e-02,-3.318e-03,0.243,-2.442e-03,
2013-07-05 21:40,350,5.708,0.295,5.594,0.938,0.034,5.628,3.942e-01,2.796e-01,1.406e-01,6.900e-03,1.264e-02,6000,0,1.587e+01,-1.086e-01,-6.946e-03,0.290,6.010e-03,
2013-07-05 21:50,347,6.451,0.335,6.254,1.415,-0.043,5.660,4.884e-01,3.172e-01,1.733e-01,1.470e-02,1.764e-02,6000,0,2.215e+01,-1.405e-01,-6.586e-03,0.301,-6.755e-03,
2013-07-05 22:00,350,6.580,0.342,6.440,1.090,-0.012,5.729,4.494e-01,4.459e-01,1.780e-01,2.324e-02,2.316e-02,6000,0,2.909e+01,-1.465e-01,-8.117e-03,0.334,-1.793e-03,
2013-07-05 22:10,351,6.814,0.368,6.683,1.062,-0.003,5.745,5.268e-01,4.563e-01,1.699e-01,2.505e-02,2.175e-02,6000,0,2.731e+01,-1.691e-01,-6.144e-03,0.301,-4.039e-04,
2013-07-05 22:20,355,6.497,0.380,6.426,0.545,-0.072,5.715,6.040e-01,3.980e-01,2.247e-01,2.850e-02,3.338e-02,6000,0,4.192e+01,-1.802e-01,-8.576e-03,0.373,-1.118e-02,
2013-07-05 22:30,354,6.907,0.366,6.820,0.693,-0.043,5.816,6.177e-01,4.936e-01,2.048e-01,5.288e-02,4.819e-02,6001,0,6.049e+01,-1.677e-01,-1.377e-02,0.365,-6.285e-03,
2013-07-05 22:40,356,6.817,0.512,6.738,0.504,0.034,5.846,9.725e-01,5.239e-01,2.496e-01,7.349e-02,7.657e-02,6000,0,9.611e+01,-3.279e-01,-8.007e-03,0.504,5.065e-03,
2013-07-05 22:50,12,5.859,0.359,5.603,-1.143,-0.104,5.416,2.106e+00,8.703e-01,2.874e-01,2.545e-01,7.355e-02,6000,0,9.246e+01,-1.613e-01,-2.238e-02,0.261,-1.824e-02,
2013-07-05 23:00,42,4.415,0.254,3.215,-2.876,-0.104,4.621,8.360e-01,4.056e-01,2.698e-01,7.592e-02,5.010e-02,6000,0,6.316e+01,-8.121e-02,-4.296e-02,0.254,-2.417e-02,
2013-07-05 23:10,35,4.496,0.343,3.589,-2.481,-0.212,4.784,9.391e-01,6.277e-01,3.220e-01,6.120e-02,3.374e-02,6000,0,4.251e+01,-1.473e-01,-1.183e-02,0.342,-4.853e-02,
2013-07-05 23:20,13,4.708,0.371,4.419,-1.047,-0.005,5.468,2.412e+00,8.304e-01,3.168e-01,1.403e-01,4.936e-02,6000,0,6.204e+01,-1.720e-01,-1.363e-02,0.340,-1.109e-03,
2013-07-05 23:30,14,5.283,0.401,5.002,-1.242,0.032,5.492,1.286e+00,8.046e-01,3.034e-01,7.198e-02,4.224e-02,6000,0,5.309e+01,-2.016e-01,-9.193e-03,0.401,6.151e-03,
2013-07-05 23:40,22,5.505,0.268,5.069,-1.998,-0.139,5.161,5.182e-01,3.440e-01,2.237e-01,3.064e-02,2.369e-02,6001,0,2.981e+01,-9.023e-02,-1.726e-02,0.265,-2.545e-02,
2013-07-05 23:50,19,5.242,0.509,4.890,-1.652,0.023,5.355,9.662e-01,4.626e-01,3.218e-01,1.124e-01,8.234e-02,6000,0,1.035e+02,-3.245e-01,-8.785e-03,0.506,4.530e-03,
2013-07-06 00:00,20,4.420,0.479,3.984,-1.444,0.135,5.289,2.015e+00,5.045e-01,4.022e-01,3.264e-01,3.611e-02,6000,0,4.541e+01,-2.870e-01,-4.632e-03,0.479,3.182e-02,
2013-07-06 00:10,14,5.245,0.336,5.018,-1.294,-0.071,5.534,4.197e-01,4.054e-01,2.313e-01,3.669e-02,4.804e-02,6000,0,6.037e+01,-1.414e-01,-1.779e-02,0.327,-1.371e-02,
2013-07-06 00:20,11,5.560,0.395,5.409,-1.057,-0.065,5.629,4.513e-01,3.183e-01,2.391e-01,6.404e-02,5.432e-02,6000,0,6.823e+01,-1.955e-01,-1.236e-02,0.376,-1.183e-02,
2013-07-06 00:30,6,5.585,0.415,5.500,-0.556,-0.065,5.653,5.401e-01,3.792e-01,2.270e-01,9.439e-02,6.295e-02,6000,0,7.906e+01,-2.155e-01,-1.237e-02,0.388,-1.185e-02,
2013-07-06 00:40,13,5.619,0.318,5.412,-1.283,-0.168,5.585,3.898e-01,3.746e-01,2.199e-01,5.518e-02,4.807e-02,6000,0,6.039e+01,-1.263e-01,-2.106e-02,0.308,-3.017e-02,
2013-07-06 00:50,9,5.404,0.356,5.290,-0.794,-0.071,5.661,4.296e-01,3.105e-01,2.583e-01,6.443e-02,6.815e-02,6001,0,8.559e+01,-1.583e-01,-2.127e-02,0.351,-1.321e-02,
2013-07-06 01:00,10,5.985,0.366,5.830,-1.064,-0.165,5.686,4.567e-01,3.902e-01,2.697e-01,7.494e-02,6.965e-02,6000,0,8.748e+01,-1.675e-01,-1.998e-02,0.342,-2.782e-02,
2013-07-06 01:10,10,5.583,0.401,5.435,-0.924,-0.075,5.721,4.584e-01,4.916e-01,2.721e-01,8.523e-02,7.345e-02,6000,0,9.223e+01,-2.013e-01,-1.599e-02,0.384,-1.359e-02,
2013-07-06 01:20,8,5.717,0.306,5.585,-0.829,-0.124,5.804,4.155e-01,5.737e-01,2.440e-01,8.657e-02,5.600e-02,6000,0,7.030e+01,-1.167e-01,-2.760e-02,0.244,-2.201e-02,
2013-07-06 01:30,7,5.655,0.407,5.537,-0.728,-0.056,6.008,4.779e-01,4.993e-01,2.817e-01,1.673e-01,1.179e-01,6000,0,1.479e+02,-2.066e-01,-2.461e-02,0.392,-1.010e-02,
2013-07-06 01:40,5,6.438,0.326,6.348,-0.534,-0.104,6.072,5.974e-01,5.576e-01,2.867e-01,1.417e-01,9.360e-02,6000,0,1.174e+02,-1.325e-01,-3.801e-02,0.307,-1.628e-02,
2013-07-06 01:50,4,7.155,0.426,7.063,-0.510,-0.171,6.117,7.096e-01,6.320e-01,3.667e-01,1.974e-01,1.484e-01,6001,0,1.860e+02,-2.260e-01,-2.704e-02,0.401,-2.416e-02,
2013-07-06 02:00,1,7.540,0.392,7.450,-0.172,-0.134,6.196,6.292e-01,9.879e-01,2.993e-01,2.024e-01,1.228e-01,6000,0,1.539e+02,-1.919e-01,-2.857e-02,0.303,-1.804e-02,
2013-07-06 02:10,1,7.637,0.433,7.557,-0.106,-0.085,6.348,7.762e-01,8.288e-01,3.360e-01,3.673e-01,1.897e-01,6000,0,2.377e+02,-2.339e-01,-3.279e-02,0.413,-1.122e-02,
2013-07-06 02:20,1,7.527,0.348,7.453,-0.137,-0.129,6.332,7.100e-01,7.641e-01,2.919e-01,2.798e-01,1.436e-01,6000,1,1.799e+02,-1.511e-01,-4.778e-02,0.269,-1.737e-02,
2013-07-06 02:30,4,7.093,0.481,6.978,-0.464,-0.091,6.586,8.637e-01,8.908e-01,4.748e-01,4.063e-01,2.710e-01,6000,2,3.392e+02,-2.888e-01,-3.405e-02,0.471,-1.305e-02,
2013-07-06 02:40,3,7.438,0.410,7.323,-0.358,-0.107,6.464,7.928e-01,1.181e+00,3.600e-01,2.665e-01,1.458e-01,6000,0,1.826e+02,-2.090e-01,-2.979e-02,0.369,-1.465e-02,
2013-07-06 02:50,4,7.461,0.455,7.356,-0.454,-0.060,6.470,9.574e-01,1.005e+00,3.594e-01,3.925e-01,2.246e-01,6000,1,2.813e+02,-2.582e-01,-3.343e-02,0.415,-8.180e-03,
2013-07-06 03:00,5,7.313,0.200,7.178,-0.572,-0.185,6.331,9.035e-01,1.327e+00,3.309e-01,2.663e-01,1.269e-01,6001,6,1.590e+02,-4.998e-02,-2.219e-01,0.176,-2.574e-02,
2013-07-06 03:10,11,7.106,0.437,6.885,-1.276,-0.188,6.531,8.242e-01,9.940e-01,4.133e-01,3.378e-01,1.805e-01,6000,10,2.260e+02,-2.382e-01,-3.030e-02,0.370,-2.679e-02,
2013-07-06 03:20,7,7.078,0.387,6.920,-0.903,-0.162,6.568,1.047e+00,9.723e-01,3.578e-01,3.735e-01,1.864e-01,6000,3,2.334e+02,-1.866e-01,-4.510e-02,0.348,-2.316e-02,
2013-07-06 03:30,10,6.786,0.447,6.559,-1.196,-0.107,6.620,7.876e-01,1.145e+00,3.661e-01,3.323e-01,1.850e-01,6000,7,2.316e+02,-2.486e-01,-2.909e-02,0.425,-1.611e-02,
2013-07-06 03:40,14,6.260,0.383,5.990,-1.522,-0.211,6.535,5.303e-01,6.274e-01,3.135e-01,2.188e-01,1.499e-01,6000,0,1.877e+02,-1.825e-01,-3.750e-02,0.354,-3.416e-02,
2013-07-06 03:50,9,5.837,0.342,5.676,-0.941,-0.088,6.584,7.257e-01,6.143e-01,2.790e-01,1.534e-01,8.818e-02,5834,0,1.104e+02,-1.453e-01,-3.105e-02,0.334,-1.531e-02,
2013-07-06 04:10,16,6.057,0.376,5.716,-1.643,-0.187,6.605,6.006e-01,1.044e+00,3.275e-01,2.752e-01,1.477e-01,6001,0,1.849e+02,-1.758e-01,-3.907e-02,0.350,-3.143e-02,
2013-07-06 04:20,18,6.747,0.472,6.326,-2.048,-0.111,6.361,7.652e-01,7.296e-01,5.100e-01,4.187e-01,2.725e-01,6000,1,3.415e+02,-2.777e-01,-3.639e-02,0.438,-1.671e-02,
2013-07-06 04:30,15,7.201,0.425,6.837,-1.861,-0.275,6.059,5.354e-01,1.242e+00,3.839e-01,2.608e-01,1.432e-01,6000,0,1.796e+02,-2.256e-01,-2.617e-02,0.365,-3.873e-02,
2013-07-06 04:40,5,7.015,0.392,6.847,-0.629,-0.084,6.083,8.870e-01,1.430e+00,4.171e-01,3.242e-01,1.878e-01,5998,0,2.355e+02,-1.915e-01,-4.391e-02,0.261,-1.225e-02,
2013-07-06 04:50,359,6.885,0.532,6.811,0.106,-0.020,6.120,8.258e-01,5.769e-01,3.634e-01,2.175e-01,1.712e-01,5999,0,2.147e+02,-3.531e-01,-1.598e-02,0.516,-2.975e-03,
2013-07-06 05:00,4,6.652,0.242,6.586,-0.461,-0.221,5.927,4.924e-01,3.701e-01,2.069e-01,6.987e-02,3.888e-02,5996,0,4.879e+01,-7.299e-02,-3.868e-02,0.191,-3.353e-02,
2013-07-06 05:10,5,6.210,0.377,6.032,-0.574,-0.126,6.303,1.144e+00,1.426e+00,2.829e-01,1.279e-01,8.057e-02,6000,0,1.010e+02,-1.768e-01,-2.119e-02,0.308,-2.077e-02,
2013-07-06 05:20,4,5.796,0.384,5.715,-0.363,-0.071,6.542,6.390e-01,5.189e-01,2.562e-01,1.536e-01,1.071e-01,6001,0,1.341e+02,-1.833e-01,-2.664e-02,0.323,-1.237e-02,
2013-07-06 05:30,12,5.498,0.310,5.302,-1.145,-0.037,6.595,5.381e-01,4.648e-01,2.980e-01,1.150e-01,1.008e-01,6000,0,1.261e+02,-1.196e-01,-4.749e-02,0.274,-6.801e-03,
2013-07-06 05:40,15,5.218,0.468,4.966,-1.343,-0.052,6.565,5.524e-01,4.416e-01,3.418e-01,1.728e-01,1.296e-01,6000,0,1.622e+02,-2.724e-01,-1.778e-02,0.466,-1.010e-02,
2013-07-06 05:50,12,5.878,0.343,5.670,-1.183,-0.102,6.599,6.147e-01,5.977e-01,3.155e-01,1.664e-01,1.070e-01,6000,0,1.339e+02,-1.467e-01,-3.712e-02,0.337,-1.758e-02,
2013-07-06 06:00,8,6.341,0.453,6.192,-0.844,-0.043,6.496,4.934e-01,7.845e-01,3.528e-01,1.939e-01,1.381e-01,6000,0,1.730e+02,-2.562e-01,-2.079e-02,0.405,-6.863e-03,
2013-07-06 06:10,3,6.319,0.408,6.223,-0.286,-0.013,6.565,7.291e-01,7.889e-01,2.814e-01,1.554e-01,1.120e-01,6000,0,1.402e+02,-2.069e-01,-2.321e-02,0.377,-2.067e-03,
2013-07-06 06:20,353,5.835,0.451,5.725,0.682,0.116,6.695,6.373e-01,4.771e-01,2.744e-01,1.462e-01,1.156e-01,6001,0,1.446e+02,-2.528e-01,-1.772e-02,0.445,2.008e-02,
2013-07-06 06:30,8,7.102,0.262,6.979,-0.932,-0.200,6.051,5.803e-01,6.312e-01,1.868e-01,1.120e-01,3.541e-02,5998,0,4.441e+01,-8.566e-02,-2.767e-02,0.241,-2.843e-02,
2013-07-06 06:40,9,6.220,0.337,6.086,-1.009,-0.113,6.009,3.515e-01,3.991e-01,2.085e-01,5.588e-02,5.301e-02,6000,0,6.650e+01,-1.416e-01,-1.951e-02,0.285,-1.836e-02,
2013-07-06 06:50,4,6.333,0.390,6.166,-0.466,-0.082,6.004,7.398e-01,1.480e+00,3.178e-01,9.743e-02,7.075e-02,6000,0,8.875e+01,-1.899e-01,-1.675e-02,0.363,-1.325e-02,
2013-07-06 07:00,357,6.476,0.394,6.413,0.339,-0.066,6.390,6.673e-01,4.719e-01,2.214e-01,1.260e-01,7.528e-02,6000,0,9.431e+01,-1.932e-01,-1.732e-02,0.379,-1.021e-02,
2013-07-06 07:10,356,6.214,0.397,6.136,0.432,-0.069,6.575,7.215e-01,5.422e-01,2.229e-01,1.010e-01,7.335e-02,5998,0,9.182e+01,-1.960e-01,-1.648e-02,0.392,-1.114e-02,
2013-07-06 07:20,8,6.267,0.251,6.090,-0.841,-0.219,6.154,3.283e-01,1.223e+00,1.706e-01,8.920e-02,2.864e-02,5999,0,3.590e+01,-7.888e-02,-2.531e-02,0.215,-3.558e-02,
2013-07-06 07:30,19,5.081,0.371,4.751,-1.631,-0.129,6.106,4.620e-01,3.366e-01,2.532e-01,1.224e-01,9.888e-02,6001,0,1.240e+02,-1.717e-01,-2.723e-02,0.342,-2.574e-02,
2013-07-06 07:40,17,4.332,0.297,4.097,-1.239,-0.148,6.339,3.448e-01,2.626e-01,1.662e-01,4.610e-02,3.673e-02,6000,0,4.602e+01,-1.102e-01,-1.963e-02,0.292,-3.460e-02,
2013-07-06 07:50,9,4.329,0.181,4.219,-0.689,-0.035,6.595,4.062e-01,2.688e-01,1.835e-01,3.495e-02,3.758e-02,6000,0,4.705e+01,-4.080e-02,-8.894e-02,0.150,-8.250e-03,